Location: Anglesey
(53.1800°N, 4.2200°W)
Time: 20:37:33
(UTC+01:00)

ISS - Visible Passes

Search period start: 13 October 2024 00:00
Search period end: 23 October 2024 00:00
Orbit: 411 x 423 km, 51.6° (Epoch: 13 October)

Date Brightness Start Highest point End Pass type
(mag) Time Alt. Az. Time Alt. Az. Time Alt. Az.
18 Oct -1.1 06:57:01 10° SSW 06:59:23 18° SE 07:01:45 10° E visible
19 Oct -0.9 06:09:31 10° S 06:11:08 13° SE 06:12:44 10° ESE visible
20 Oct -2.2 06:55:49 10° SW 06:58:49 32° SSE 07:01:49 10° E visible
21 Oct -1.8 06:08:24 14° SSW 06:10:23 24° SSE 06:13:07 10° E visible
22 Oct -1.4 05:22:01 17° SE 05:22:01 17° SE 05:24:13 10° ESE visible
22 Oct -3.1 06:54:55 10° WSW 06:58:09 50° SSE 07:01:24 10° E visible
